Weather History for KLEB - December, 2013

Change the Weather History Date:

Monday, December 16, 2013

  Actual Average Record
Temperature  
Mean Temperature 12 °F -  
Max Temperature 23 °F 33 °F 53 °F (1982)
Min Temperature 1 °F 17 °F -14 °F (1943)
Degree Days  
Heating Degree Days 53    
Moisture  
Dew Point 3 °F    
Average Humidity 57    
Maximum Humidity 84    
Minimum Humidity 36    
Precipitation  
Precipitation 0.00 in - - ()
Sea Level Pressure  
Sea Level Pressure 29.95 in    
Wind  
Wind Speed 7 mph (West)    
Max Wind Speed 21 mph    
Max Gust Speed 33 mph    
Visibility 9 miles    
Events Snow    
Averages and records for this station are not official NWS values.
T = Trace of Precipitation, MM = Missing Value Source: NWS Daily Summary

Daily Weather History Graph

Daily Weather History Graph

Search for Another Location

Airport or City:

Trip Planner

Search our weather history database for the weather conditions in past years. The results will help you decide how hot, cold, wet, or windy it might be!

Date:

Astronomy

Dec. 16, 2013 Rise Set
Actual Time 7:16 AM EST 4:13 PM EST
Civil Twilight 6:43 AM EST 4:46 PM EST
Nautical Twilight 6:07 AM EST 5:22 PM EST
Astronomical Twilight 5:32 AM EST 5:57 PM EST
Moon 4:03 PM EST (12/16) 6:20 AM EST (12/16)
Length of Visible Light 10h 02m
Length of Day
8h 56m
Full, 100% of the Moon is Illuminated
Dec 16
Full
Dec 17
Full
Dec 25
Last Quarter
Jan 1
New
Jan 7
First Quarter

Hourly Weather History & Observations

Time (EST) Temp. Windchill Dew Point Humidity Pressure Visibility Wind Dir Wind Speed Gust Speed Precip Events Conditions
12:53 AM 16.0 °F - 12.0 °F 84% 29.71 in 10.0 mi Calm Calm - N/A   Overcast
1:53 AM 18.0 °F 7.7 °F 12.9 °F 81% 29.72 in 9.0 mi South 8.1 mph - N/A   Overcast
2:21 AM 19.0 °F 11.1 °F 14.0 °F 81% 29.69 in 4.0 mi South 5.8 mph - 0.00 in Snow Light Snow
2:53 AM 19.9 °F 13.4 °F 15.1 °F 81% 29.74 in 7.0 mi SSW 4.6 mph - 0.00 in Snow Light Snow
3:39 AM 23.0 °F 13.9 °F 15.1 °F 72% 29.70 in 6.0 mi SSW 8.1 mph - 0.00 in Snow Light Snow
3:53 AM 21.9 °F 12.5 °F 14.0 °F 72% 29.74 in 10.0 mi South 8.1 mph - 0.00 in   Overcast
4:53 AM 23.0 °F 14.7 °F 14.0 °F 68% 29.77 in 10.0 mi WSW 6.9 mph - N/A   Overcast
5:53 AM 21.0 °F 14.6 °F 9.0 °F 60% 29.81 in 10.0 mi Variable 4.6 mph - N/A   Partly Cloudy
6:53 AM 21.0 °F 8.6 °F 7.0 °F 55% 29.85 in 10.0 mi WNW 12.7 mph 19.6 mph N/A   Overcast
7:53 AM 19.0 °F 11.1 °F 6.1 °F 57% 29.88 in 10.0 mi NNW 5.8 mph - N/A   Overcast
8:53 AM 19.0 °F 6.8 °F 3.9 °F 52% 29.93 in 10.0 mi WSW 11.5 mph - N/A   Overcast
9:53 AM 19.0 °F 8.2 °F -0.0 °F 43% 29.96 in 10.0 mi West 9.2 mph - N/A   Clear
10:53 AM 19.0 °F 6.1 °F -2.0 °F 40% 29.96 in 10.0 mi West 12.7 mph - N/A   Clear
11:53 AM 19.9 °F 5.7 °F -0.9 °F 40% 29.96 in 10.0 mi West 16.1 mph - N/A   Clear
12:53 PM 21.0 °F 8.6 °F -2.0 °F 36% 29.96 in 10.0 mi West 12.7 mph 21.9 mph N/A   Partly Cloudy
1:53 PM 19.9 °F 5.2 °F -0.0 °F 42% 29.96 in 8.0 mi West 17.3 mph 27.6 mph N/A   Overcast
2:53 PM 19.0 °F 2.7 °F 1.0 °F 46% 29.99 in 1.0 mi West 20.7 mph 33.4 mph N/A   Haze
3:00 PM 19.0 °F 6.1 °F 1.0 °F 46% 29.95 in 10.0 mi West 12.7 mph 33.4 mph N/A   Mostly Cloudy
3:53 PM 19.0 °F 5.6 °F -0.9 °F 42% 30.02 in 10.0 mi WNW 13.8 mph 23.0 mph N/A   Partly Cloudy
4:53 PM 18.0 °F 7.7 °F -0.0 °F 45% 30.05 in 10.0 mi West 8.1 mph - N/A   Clear
5:53 PM 16.0 °F 3.6 °F -2.0 °F 45% 30.08 in 10.0 mi West 10.4 mph - N/A   Clear
6:53 PM 15.1 °F 6.4 °F -2.9 °F 45% 30.11 in 10.0 mi NW 5.8 mph - N/A   Clear
7:53 PM 12.9 °F 5.2 °F -2.9 °F 49% 30.15 in 10.0 mi NW 4.6 mph - N/A   Clear
8:53 PM 7.0 °F -5.7 °F -4.0 °F 61% 30.19 in 10.0 mi NE 8.1 mph - N/A   Mostly Cloudy
9:53 PM 6.1 °F -2.8 °F -5.1 °F 60% 30.23 in 10.0 mi Variable 4.6 mph - N/A   Clear
10:53 PM 1.9 °F -9.2 °F -9.0 °F 60% 30.25 in 10.0 mi NNE 5.8 mph - N/A   Clear
11:53 PM 1.0 °F -8.7 °F -8.0 °F 66% 30.25 in 10.0 mi North 4.6 mph - N/A   Clear